Flag for U.S.A. Weather past 2 weeks in Pullman, Washington, U.S.A.

Now
28 °F

Passing clouds.


Feels Like: 19 °F
Forecast: 21 / 35 °F
Wind: 10 mph from North

Location: Pullman / Moscow Regional Airport

Current Time: Mar 3, 2015 at 2:02:54 AM

Latest Report: Mar 3, 2015 at 12:53 AM


Visibility: 10 mi

Pressure: 30.09 "Hg

Humidity: 81%

Dew point: 23 °F

Location of PullmanLocation

Historic Weather in Pullman — Graph

°F

Pullman temperature yesterday

Maximum temperature yesterday: 40 °F (at 11:53 AM)
Minimum temperature yesterday: 29 °F (at 11:53 PM)
Average temperature yesterday: 34 °F

Past Weeks' High & Low Weather Summary

 TemperatureHumidityPressure
High52 °F (Feb 18, 1:53 PM)97% (Feb 21, 8:53 AM)30.53 "Hg (Feb 21, 8:53 AM)
Low23 °F (Feb 22, 6:53 AM)23% (Feb 22, 11:53 AM)29.74 "Hg (Feb 27, 3:53 PM)
Average36 °F65%30.22 "Hg
* Reported Feb 16 12:53 AM — Mar 3 12:53 AM, Pullman, Weather by CustomWeather, © 2015

Note: Actual official high and low records may vary slightly from our data, if they occured in-between our weather recording intervals... More about our weather records

Advertising

Pullman weather history for previous 24 hours

 ConditionsComfort  
Time TempWeatherWind HumidityBarometerVisibility
12:53 AM
Tue, Mar 3
28 °FPassing clouds.10 mph81%30.09 "Hg10 mi
11:53 PM
Mon, Mar 2
29 °FClear.10 mph89%30.05 "Hg10 mi
10:53 PM31 °FMostly cloudy.10 mph85%30.03 "Hg10 mi
9:53 PM30 °FPassing clouds.5 mph96%30.01 "Hg10 mi
8:53 PM31 °FPartly cloudy.8 mph92%30.00 "Hg10 mi
7:53 PM33 °FOvercast.3 mph85%29.98 "Hg10 mi
6:53 PM34 °FLight snow. Overcast.3 mph82%29.97 "Hg5 mi
5:53 PM34 °FMostly cloudy.8 mph82%29.95 "Hg10 mi
4:53 PM35 °FLight snow. Mostly cloudy.9 mph72%29.94 "Hg7 mi
3:53 PM36 °FOvercast.9 mph70%29.93 "Hg9 mi
2:53 PM36 °FOvercast.5 mph64%29.93 "Hg8 mi
1:53 PM37 °FMostly cloudy.7 mph62%29.93 "Hg9 mi
12:53 PM40 °FOvercast.12 mph47%29.92 "Hg10 mi
11:53 AM40 °FOvercast.5 mph49%29.92 "Hg10 mi
10:53 AM39 °FMore clouds than sun.No wind50%29.93 "Hg10 mi
9:53 AM39 °FOvercast.No wind48%29.93 "Hg10 mi
8:53 AM36 °FMostly cloudy.No wind52%29.93 "Hg10 mi
7:53 AM33 °FPartly sunny.6 mph52%29.94 "Hg10 mi
6:53 AM31 °FPassing clouds.5 mph54%29.94 "Hg10 mi
5:53 AM32 °FClear.7 mph50%29.93 "Hg10 mi
4:53 AM32 °FPassing clouds.7 mph54%29.92 "Hg10 mi
3:53 AM33 °FPassing clouds.7 mph49%29.92 "Hg10 mi
2:53 AM33 °FClear.3 mph54%29.93 "Hg10 mi
Weather by CustomWeather, © 2015

See weather overviewHow to use our weather pages